STARLINK-31745, 60329

Orbit data source: Space-Track

STARLINK-31745, 60329 is a payload satellite owned by SpaceX/Seattle (US) in LEO that was launched on Fri, 02 Aug 2024 UTC via an FALCON 9 launch vehicle from the Air Force Eastern Test Range (AFETR). Payload-class satellites include a variety of spacecraft equipped with specific instruments for various scientific and technological missions. These include communications satellites like Starlink; space stations such as the ISS; scientific satellites like the Hubble; Earth observation satellites from companies like Planet Labs, Umbra, and HawkEye 360; GPS; miniature CubeSats for education and research; and military/defense satellites.

Loading next visibility...
Identifier
60329, 2024-136A
Orbit
LEO
Last TLE update
17 hours ago
Origin
Manufacturer
SpaceX/Seattle
Mission
Operational Commercial Communications
Bus & Motor
STARLINK V2M, Unknown motor
Mass
730 kg wet, ~700 kg dry
Launch date (UTC)
2024-08-02 (9 months ago)
Launch vehicle
FALCON 9
Launch site
Air Force Eastern Test Range (AFETR)
Object type
Payload
Rocket body
Debris
Shape & HBR
Box + 2 Pan, 29 m
Radar Cross Section
33.884 m², Large (>1 m²)

Expand to show TLE details & history

TLE from 17 hours ago
0 STARLINK-31745
1 60329U 24136A   25128.49695357 -.00000562  00000-0 -68661-5 0  9999
2 60329  53.1615  53.5804 0001036  92.5636 267.5484 15.30189827 44142
Epoch: 2025-05-08T11:55Z
Definitive object data (Epoch: 2025-05-08T11:55:36.788Z)
Latitude
0.00003°
Longitude
8.11053°
Altitude
476.176 km
Speed
7.629 km/s
True Right ascension
03h 34m 19s
True Declination
0° 00' 00"
Sunlit
Object was in daylight at TLE epoch
Visualization TLE readout
Latitude
0.06566°
Longitude
4.82135°
Altitude
476.195 km
Speed
7.629 km/s
Apparent Right ascension
02h 30m 25s
Apparent Declination
-19° 41' 54"
Sunlit
Object is in daylight
Visualization observer readout
Local Sidereal Time
13:18:50
Azimuth
317.561° NNW
Elevation
-64.616°
Doppler factor
1
Orbital elements
Apogee altitude
476.212 km
Perigee altitude
474.792 km
Semi-major axis
6,853.639 km
Eccentricity
0.0001036
Inclination
53.1615°
RAAN
53.5804°
Arg. of periapsis
92.5636°
True anomaly
267.53654°
Mean anomaly
267.5484°
Eccentric anomaly
267.54247°
Mean motion
3.82526 °/min
BSTAR
-0.0000068661
Orbital period
94.11 mins
Loading maneuver chart data...
Loading SW <> Apogee altitude chart data...
Loading historical data...
Loading historical data...
Loading historical data...
Loading historical data...
Loading historical data...
Loading historical data...
Loading historical data...

STARLINK-31745 Visibility forecast

Observer location: undefined°, undefined°

Span
Click to sort rows by Start time (UTC) header in descending order
Start Az.
Max El. time (UTC)
Max El. Az.
Max El.
End time (UTC)
End Az.
5 mins2025-05-09 05:43:13.288Z276.134° WNW2025-05-09 05:45:13.288Z241.714° WSW18.159°2025-05-09 05:48:13.288Z185.32° SSW
5 mins2025-05-09 21:01:13.288Z202.015° SSW2025-05-09 21:03:13.288Z154.055° SSE35.346°2025-05-09 21:06:13.288Z65.214° ENE
4 mins2025-05-09 22:40:13.288Z296.976° NW2025-05-09 22:41:13.288Z320.955° NNW22.906°2025-05-09 22:44:13.288Z25.364° NE
5 mins2025-05-10 03:36:13.288Z330.006° NNW2025-05-10 03:38:13.288Z19.351° NNE33.275°2025-05-10 03:41:13.288Z101.536° ESE
|